International Skating Union - Official Site

ISU World Cup Final Heerenveen
March 11-13, 2016

Draw | Lap Times | Index | World Cup

Referee: Jan  BOLT  (NED)
Starter: Stefan  HERRMANN  (GER)
StartTime: EndTime: Air Temp: Ice Temp: Humidity:
18:15 14.6 ℃ -12.8 ℃ 41%
Result Team Pursuit Men
Rankings as of Mar 11 2016 6:23PM
Rank: No.: Team: Nation: Time: Behind: Points:
Total 4
1 3 Netherlands (24) Jan Blokhuijsen (25) Douwe de Vries (35) Arjan Stroetinga NED NED 3:42.280.5 - 17.77 - (17.7)
1.0 - 31.04 - (13.2)
1.5 - 44.51 - (13.4)
2.0 - 57.83 - (13.3)
2.5 - 1:11.06 - (13.2)
3.0 - 1:24.57 - (13.5)
3.5 - 1:37.96 - (13.3)
4.0 - 1:51.66 - (13.7)
4.5 - 2:05.34 - (13.6)
5.0 - 2:19.13 - (13.7)
5.5 - 2:33.06 - (13.9)
6.0 - 2:46.76 - (13.6)
6.5 - 3:00.53 - (13.7)
7.0 - 3:14.54 - (14.0)
7.5 - 3:28.29 - (13.7)
8.0 - 3:42.28 - (13.9)
2 2 Norway (37) Håvard Bøkko (39) Simen Spieler Nilsen (40) Sverre Lunde Pedersen NOR NOR 3:43.420.5 - 17.64 - (17.6)
1.0 - 31.13 - (13.4)
1.5 - 44.81 - (13.6)
2.0 - 58.73 - (13.9)
2.5 - 1:12.51 - (13.7)
3.0 - 1:26.27 - (13.7)
3.5 - 1:40.04 - (13.7)
4.0 - 1:53.62 - (13.5)
4.5 - 2:07.43 - (13.8)
5.0 - 2:21.10 - (13.6)
5.5 - 2:34.78 - (13.6)
6.0 - 2:48.40 - (13.6)
6.5 - 3:02.08 - (13.6)
7.0 - 3:15.77 - (13.6)
7.5 - 3:29.51 - (13.7)
8.0 - 3:43.42 - (13.9)
1.14
3 4 Poland (41) Zbigniew Brodka (43) Konrad Niedzwiedzki (45) Jan Szymanski POL POL 3:47.030.5 - 18.20 - (18.1)
1.0 - 31.93 - (13.7)
1.5 - 45.68 - (13.7)
2.0 - 59.26 - (13.5)
2.5 - 1:13.08 - (13.8)
3.0 - 1:27.02 - (13.9)
3.5 - 1:40.71 - (13.6)
4.0 - 1:54.41 - (13.7)
4.5 - 2:08.18 - (13.7)
5.0 - 2:21.75 - (13.5)
5.5 - 2:35.53 - (13.7)
6.0 - 2:49.54 - (14.0)
6.5 - 3:03.63 - (14.0)
7.0 - 3:17.82 - (14.1)
7.5 - 3:32.48 - (14.6)
8.0 - 3:47.03 - (14.5)
4.75
4 1 Italy (19) Andrea Giovannini (20) Michele Malfatti (21) Nicola Tumolero ITA ITA 3:47.200.5 - 17.92 - (17.9)
1.0 - 31.75 - (13.8)
1.5 - 45.32 - (13.5)
2.0 - 58.97 - (13.6)
2.5 - 1:12.71 - (13.7)
3.0 - 1:26.44 - (13.7)
3.5 - 1:40.56 - (14.1)
4.0 - 1:54.38 - (13.8)
4.5 - 2:08.44 - (14.0)
5.0 - 2:22.29 - (13.8)
5.5 - 2:36.17 - (13.8)
6.0 - 2:50.35 - (14.1)
6.5 - 3:04.65 - (14.3)
7.0 - 3:18.84 - (14.1)
7.5 - 3:33.21 - (14.3)
8.0 - 3:47.20 - (13.9)
4.92